Wind_Speed
35 34 33 32 32 31 30 29 27 25 25 27 28 28 29 28 27 26 26 25 25 26 26 26 28 29 30 29 29 30 30 31 33 33 34 35 35 34
36 35 34 33 33 31 30 29 28 26 25 26 27 27 27 27 26 25 25 25 25 26 26 26 26 27 28 28 29 28 29 29 30 31 32 32 33 34
38 37 35 34 33 32 30 29 28 27 25 25 27 27 27 27 26 26 25 25 25 25 26 26 27 27 28 28 29 28 29 29 30 31 31 32 32 34
39 38 36 35 33 32 31 30 28 27 26 25 26 27 27 27 27 26 25 25 25 25 25 26 26 25 25 25 26 27 27 28 29 30 31 32 32 33
40 38 37 36 34 33 31 30 28 27 27 26 26 27 27 27 27 26 26 26 26 25 25 25 25 24 24 25 25 26 27 28 28 29 31 33 34 34
42 40 38 37 35 33 32 30 29 27 27 26 26 27 27 26 26 26 26 26 26 26 26 26 25 25 24 24 24 24 25 26 27 27 28 29 31 32
43 41 39 37 35 34 32 31 29 27 27 26 26 26 27 26 26 25 25 26 26 25 25 25 25 24 23 23 23 23 23 23 24 24 25 26 28 29
45 43 40 38 36 34 32 31 29 28 26 25 24 25 26 25 25 25 24 25 25 24 23 23 23 22 22 22 22 21 21 22 22 23 23 24 25 26
47 45 42 39 37 35 32 31 29 28 27 25 23 23 24 26 26 24 23 24 25 24 23 22 21 20 20 20 19 19 19 20 21 22 22 23 24 25
49 46 43 40 37 35 33 31 29 28 26 25 23 23 24 24 24 24 24 25 25 23 21 20 20 19 18 17 18 17 17 17 18 19 19 20 22 23
47 45 42 39 36 35 32 30 28 27 26 25 24 23 23 23 22 22 22 22 22 21 19 18 18 17 16 15 15 15 14 14 14 14 15 17 18 20
44 43 40 38 36 34 32 30 28 26 25 24 23 22 22 22 21 20 20 19 19 18 17 16 16 15 14 13 12 11 10 10 11 12 14 16 18 20
41 41 38 36 34 32 30 28 27 25 24 23 22 21 20 19 19 19 19 18 18 17 16 15 14 13 12 11 10 9 8 9 10 12 13 15 17 19
39 39 37 35 33 31 29 27 25 24 24 23 22 21 21 20 20 19 19 18 18 17 16 15 14 12 11 10 9 8 8 8 9 11 12 14 16 18
38 37 35 34 32 30 28 26 24 23 22 22 21 20 20 20 19 19 18 18 17 17 15 14 13 11 10 9 8 8 8 8 10 12 13 15 17 19
38 36 34 33 31 29 26 24 23 22 21 20 20 19 19 19 19 18 18 18 17 16 15 13 12 11 10 9 8 8 9 10 11 13 14 16 18 20
37 36 35 33 30 27 25 24 22 21 21 21 20 20 19 19 19 19 19 18 17 16 14 13 12 11 10 10 9 10 10 12 13 15 17 19 20 22
37 35 33 31 29 27 25 24 24 23 23 22 21 21 20 20 19 19 19 18 17 15 13 12 12 11 10 11 11 12 13 14 16 18 20 21 23 25
36 34 32 31 29 27 26 26 25 24 23 22 22 21 20 20 20 20 19 18 16 14 13 12 12 12 12 13 14 15 16 18 19 21 23 24 26 27
35 33 32 30 28 27 26 25 25 25 24 23 22 21 21 21 20 19 18 16 15 14 13 13 13 14 15 16 17 18 20 21 22 24 25 27 28 29
34 33 31 30 29 28 27 26 26 25 23 22 22 21 21 21 20 18 17 16 14 14 14 14 15 16 17 19 20 21 22 24 25 26 27 28 29 30
33 32 31 30 29 28 27 26 25 24 23 22 22 21 20 20 19 18 16 16 15 15 15 16 17 18 20 21 23 24 25 26 27 29 29 30 31 32
32 31 30 30 29 28 26 25 24 23 22 21 21 20 19 19 18 17 16 16 16 17 18 19 20 21 23 24 25 26 28 28 29 29 30 31 33 34
Wind_Direction
281 284 289 292 295 297 298 295 289 280 271 264 262 260 259 260 260 259 260 258 255 253 250 249 249 249 250 250 251 251 251 250 248 249 248 249 250 251
278 281 284 288 291 294 294 293 289 282 272 265 263 261 258 259 260 259 259 258 256 253 250 249 251 251 250 252 251 251 250 249 248 248 248 249 252 253
274 277 280 284 288 290 290 289 287 283 275 267 263 262 259 259 258 258 257 257 256 254 252 252 252 252 252 253 253 253 252 251 250 249 248 250 252 252
271 274 276 280 284 287 287 286 284 281 276 269 262 260 258 257 257 257 257 257 255 253 253 253 253 253 254 254 254 253 254 252 251 250 250 250 250 251
267 270 273 277 280 283 284 282 281 279 276 270 264 260 257 257 258 256 256 254 252 252 253 253 254 254 255 255 255 253 253 253 253 253 255 254 255 255
265 267 269 273 276 278 280 280 278 276 273 270 265 261 258 256 256 256 255 252 252 252 253 253 252 253 255 254 253 254 254 253 254 256 257 257 257 257
262 264 266 269 273 274 276 276 275 273 271 268 265 260 256 255 254 255 254 251 250 251 251 251 251 252 254 253 253 253 254 254 256 257 259 260 260 260
260 262 263 265 268 270 272 272 271 270 268 265 262 259 253 252 251 251 251 251 249 248 249 250 249 248 250 250 251 252 253 255 256 259 260 261 261 261
257 258 259 261 264 266 268 268 267 266 265 261 258 255 254 251 247 246 247 250 251 248 248 246 245 245 247 248 249 249 252 255 257 259 261 262 263 265
252 254 255 257 259 262 263 263 263 263 261 258 255 255 252 247 245 245 246 245 246 242 241 239 238 240 244 245 247 248 250 254 257 259 263 266 267 270
246 248 250 251 254 257 258 258 258 257 255 253 252 253 250 245 243 241 238 237 235 232 233 234 233 235 236 238 243 242 246 253 259 264 269 273 277 280
237 240 243 246 248 250 251 251 252 251 250 247 244 242 241 238 238 237 231 229 228 225 224 226 226 226 227 228 232 235 243 254 264 272 277 281 284 285
228 231 235 238 240 242 244 244 244 244 242 237 235 235 235 233 231 227 222 219 219 215 215 218 220 217 215 217 221 229 244 260 271 277 283 287 291 293
221 225 228 230 232 234 236 237 237 238 236 233 233 231 229 225 220 215 212 211 209 206 205 206 205 201 203 210 219 232 249 262 273 283 289 294 298 301
214 217 220 223 225 226 227 229 230 230 228 225 223 222 219 214 211 207 203 200 197 195 195 194 192 195 203 214 227 241 256 270 281 289 295 298 302 304
205 209 212 215 217 218 219 220 220 218 214 212 211 210 208 204 198 195 194 191 189 190 189 188 192 200 210 221 234 248 262 276 287 295 299 303 306 307
199 203 205 207 208 209 209 209 207 205 202 202 200 198 195 190 187 185 184 184 185 184 185 192 201 211 221 233 246 259 272 283 293 299 302 304 307 309
192 197 198 199 198 199 200 199 197 194 193 194 192 188 185 183 183 183 183 183 183 187 193 203 213 223 236 248 258 269 278 286 294 299 303 305 307 308
187 189 190 192 191 192 192 192 190 188 187 185 182 181 181 183 183 184 184 186 191 198 207 217 228 239 251 261 269 276 282 289 294 299 302 305 306 307
184 184 183 185 187 186 185 185 185 183 181 181 182 183 184 184 185 186 189 194 202 211 221 233 243 253 260 267 274 280 285 289 293 298 301 303 305 307
180 179 179 180 180 181 181 180 179 178 180 183 185 186 187 188 190 193 199 205 214 224 235 246 254 262 269 275 280 284 287 290 294 298 300 302 304 305
177 175 174 175 176 175 175 176 178 179 182 185 187 189 190 193 197 202 210 218 227 237 247 256 264 271 276 280 283 286 288 291 293 296 299 301 303 305
173 171 172 172 172 173 174 176 179 181 184 187 189 192 196 201 207 214 221 231 240 250 258 265 272 277 281 284 285 287 289 290 292 293 296 298 301 303
Height
5769 5768 5766 5764 5762 5760 5758 5756 5756 5755 5756 5756 5758 5759 5761 5762 5764 5765 5767 5769 5771 5774 5776 5779 5782 5785 5788 5790 5793 5795 5798 5800 5803 5806 5809 5812 5814 5817
5760 5759 5758 5756 5755 5753 5751 5750 5748 5748 5749 5750 5750 5751 5753 5755 5757 5759 5761 5763 5765 5767 5770 5772 5775 5778 5781 5783 5786 5788 5791 5793 5796 5799 5801 5804 5807 5809
5750 5750 5749 5747 5747 5745 5744 5743 5741 5741 5742 5743 5743 5744 5746 5748 5750 5752 5754 5756 5758 5760 5763 5766 5768 5771 5773 5776 5778 5781 5783 5786 5789 5791 5794 5797 5799 5801
5739 5739 5739 5739 5738 5737 5736 5735 5734 5734 5734 5735 5736 5737 5739 5740 5743 5745 5747 5749 5751 5754 5756 5759 5761 5764 5766 5769 5771 5774 5776 5779 5781 5784 5787 5789 5791 5793
5728 5729 5729 5729 5729 5729 5728 5728 5727 5727 5727 5728 5729 5730 5732 5733 5735 5738 5740 5742 5745 5747 5750 5752 5755 5757 5760 5762 5764 5767 5769 5772 5774 5776 5779 5781 5783 5785
5716 5718 5719 5719 5720 5720 5720 5720 5719 5720 5720 5721 5722 5723 5725 5726 5729 5731 5733 5736 5738 5741 5744 5746 5749 5751 5753 5755 5758 5760 5762 5765 5767 5769 5770 5772 5774 5776
5704 5706 5708 5709 5710 5710 5711 5711 5712 5712 5713 5713 5715 5716 5718 5720 5722 5724 5726 5729 5732 5735 5737 5740 5742 5745 5747 5749 5751 5753 5756 5758 5760 5761 5763 5765 5766 5768
5690 5693 5696 5698 5700 5701 5702 5703 5703 5704 5705 5707 5708 5709 5711 5713 5716 5718 5720 5723 5726 5729 5731 5733 5736 5738 5741 5743 5745 5747 5749 5751 5753 5755 5756 5758 5759 5760
5675 5680 5683 5687 5689 5691 5693 5694 5695 5696 5698 5700 5702 5703 5705 5707 5709 5712 5714 5716 5719 5722 5725 5727 5730 5733 5735 5737 5739 5741 5744 5746 5747 5748 5750 5751 5752 5753
5660 5666 5671 5675 5678 5681 5683 5685 5687 5689 5691 5693 5695 5697 5699 5700 5702 5705 5708 5711 5714 5717 5720 5722 5725 5727 5730 5732 5734 5736 5738 5740 5741 5743 5744 5745 5745 5746
5645 5651 5658 5663 5667 5670 5673 5676 5679 5681 5684 5686 5688 5690 5692 5694 5697 5700 5703 5705 5708 5711 5714 5718 5720 5723 5725 5728 5730 5732 5733 5735 5736 5737 5738 5739 5739 5739
5630 5638 5645 5651 5656 5660 5664 5668 5671 5674 5677 5679 5682 5684 5686 5689 5692 5695 5698 5701 5704 5707 5710 5713 5716 5719 5721 5724 5726 5727 5729 5730 5731 5732 5733 5733 5733 5732
5617 5625 5633 5640 5645 5650 5655 5659 5663 5667 5670 5673 5676 5679 5682 5684 5687 5690 5693 5697 5700 5703 5706 5710 5713 5716 5718 5720 5722 5724 5725 5726 5727 5727 5727 5727 5726 5725
5605 5614 5622 5629 5636 5642 5647 5651 5656 5659 5663 5667 5670 5673 5677 5680 5683 5686 5690 5693 5696 5700 5703 5706 5709 5712 5715 5718 5719 5721 5722 5722 5723 5723 5722 5721 5720 5719
5595 5605 5613 5620 5627 5634 5639 5644 5649 5653 5657 5661 5665 5669 5672 5676 5679 5683 5687 5690 5694 5697 5701 5704 5707 5710 5712 5715 5716 5717 5718 5718 5718 5718 5717 5716 5714 5712
5587 5596 5604 5612 5620 5627 5633 5638 5644 5648 5653 5657 5661 5665 5669 5673 5676 5681 5685 5688 5692 5696 5699 5702 5705 5708 5710 5711 5713 5713 5714 5714 5713 5712 5711 5710 5708 5705
5580 5589 5598 5607 5614 5622 5628 5634 5639 5644 5649 5654 5658 5662 5667 5671 5675 5679 5683 5687 5691 5694 5697 5700 5703 5705 5707 5708 5709 5709 5709 5709 5708 5707 5705 5703 5701 5698
5575 5585 5594 5602 5610 5617 5624 5630 5636 5641 5646 5651 5656 5661 5665 5670 5674 5678 5682 5686 5689 5693 5695 5698 5700 5702 5704 5705 5705 5705 5704 5704 5702 5701 5699 5696 5694 5691
5572 5581 5590 5599 5607 5614 5621 5628 5633 5639 5644 5650 5655 5660 5664 5669 5673 5677 5681 5684 5688 5691 5693 5696 5697 5699 5700 5701 5700 5700 5699 5698 5696 5694 5692 5689 5686 5683
5570 5579 5588 5596 5604 5612 5619 5626 5632 5637 5643 5649 5654 5659 5663 5668 5672 5676 5679 5682 5686 5688 5690 5692 5694 5695 5695 5696 5695 5694 5693 5691 5689 5687 5685 5682 5678 5675
5570 5579 5587 5595 5603 5611 5618 5625 5631 5637 5643 5648 5653 5658 5662 5667 5670 5674 5677 5680 5683 5685 5687 5688 5689 5690 5690 5690 5689 5688 5686 5684 5682 5680 5677 5674 5671 5667
5571 5580 5588 5596 5603 5611 5618 5624 5631 5636 5642 5647 5652 5657 5661 5665 5668 5672 5675 5677 5680 5681 5683 5684 5684 5684 5684 5683 5682 5681 5679 5677 5675 5672 5669 5666 5662 5658
5574 5582 5590 5597 5604 5611 5618 5625 5630 5636 5641 5646 5651 5655 5659 5663 5666 5669 5671 5674 5675 5677 5678 5678 5678 5678 5677 5676 5675 5673 5671 5669 5667 5664 5661 5657 5654 5650